{"data":{"norad_id":41852,"intl_designator":"2016-067E","name":"AEROCUBE 8D","alt_names":[],"object_type":"PAYLOAD","status":"ACTIVE","operator":null,"country":"US","launch_date":"2016-11-11","launch_site_code":"AFWTR","launch_vehicle":null,"mission":null,"orbit_class":"UNKNOWN","rcs_meters":0.052,"size_class":null,"mass_kg":null,"dimensions":null,"purposes":["tech_demo"],"wikipedia_slug":null,"has_3d_model":false,"image_url":null,"decayed_at":null,"tle_current":{"epoch":"2026-09-19T21:42:08.718912Z","epoch_age_seconds":65833,"freshness":"FRESH","line1":"1 41852U 16067E   26262.90426758  .00004691  00000+0  18822-3 0  9992","line2":"2 41852  98.0513 140.2881 0003930 143.7037 216.4467 15.25546241540501","mean_motion":15.25546241,"eccentricity":0.000393,"inclination_deg":98.0513,"raan_deg":140.2881,"arg_perigee_deg":143.7037,"mean_anomaly_deg":216.4467,"bstar":0.00018822,"rev_number":54050,"period_min":94.392419010261,"perigee_km":486.44682448137,"apogee_km":491.84450865729,"semimajor_km":6867.2826665693,"source":"CELESTRAK","updated_at":"2026-09-20T09:00:48.031892Z"}}}